STOCKHOLM / BROMMA current weather conditions

sailwx.info

Wind from 150 at 14 knots

Air temperature 3.0° C
Visibility: greater than 5.4 NM
Dewpoint 1.0° C
Present weather: Light drizzle.

Last reported at 2015-Mar-29 07:20 UTC.
Time now 2015-Mar-29 09:24 UTC

Location: N 59°21' E 017°57'.
View on Google Maps.

See reports from other nearby stations

  
Tides and Currents Weather Stations Pressure Air Temp Water Temp Dewpoint Dewpoint Depression Visibility Wind Speed Wind Dir Waves Ship Positions
date/time (UTC)wind fromknots sea level pressurealtimeterstation pressurevisibilityair tempwater tempwave heightnotes
2015-Mar-29 08:20 150 14 4.3 4.0 Light rain.
2015-Mar-29 07:50 150 16 4.3 3.0 Light rain.
2015-Mar-29 07:20 150 14 5.4 3.0 Light drizzle.
2015-Mar-29 06:50 150 14 5.4 4.0
2015-Mar-29 06:20 150 14 5.4 4.0
2015-Mar-29 05:50 150 12 5.4 3.0
2015-Mar-29 05:20 140 11 5.4 3.0
2015-Mar-29 04:50 140 12 5.4 3.0
2015-Mar-29 04:20 140 9 5.4 2.0
2015-Mar-29 03:50 140 9 5.4 2.0
2015-Mar-29 03:20 140 8 5.4 2.0
2015-Mar-29 02:50 140 9 5.4 2.0
2015-Mar-29 02:20 140 7 5.4 2.0
2015-Mar-29 01:50 150 6 5.4 2.0
2015-Mar-29 01:20 150 5 5.4 2.0
2015-Mar-29 00:50 150 6 5.4 2.0
2015-Mar-29 00:20 140 7 5.4 2.0
2015-Mar-28 23:50 140 6 5.4 2.0
2015-Mar-28 23:20 140 6 5.4 2.0
2015-Mar-28 22:50 130 6 5.4 1.0
2015-Mar-28 22:20 140 6 5.4 1.0
2015-Mar-28 21:50 140 5 5.4 1.0
2015-Mar-28 21:20 130 5 5.4 1.0
2015-Mar-28 20:50 150 4 5.4 2.0
2015-Mar-28 20:20 160 5 5.4 1.0
2015-Mar-28 19:50 160 4 5.4 1.0
2015-Mar-28 19:20 160 3 5.4 2.0
2015-Mar-28 18:50 150 4 5.4 2.0
2015-Mar-28 18:20 140 4 5.4 2.0
2015-Mar-28 17:50 140 4 5.4 3.0
2015-Mar-28 17:20 170 5 5.4 4.0
2015-Mar-28 16:50 190 6 5.4 5.0
2015-Mar-28 16:20 210 7 5.4 5.0
2015-Mar-28 15:50 200 6 5.4 6.0
2015-Mar-28 15:20 240 5 5.4 6.0
2015-Mar-28 14:50 250 7 5.4 6.0
2015-Mar-28 14:20 240 8 5.4 6.0
2015-Mar-28 13:50 240 9 5.4 6.0
2015-Mar-28 13:20 250 9 5.4 6.0
2015-Mar-28 12:50 250 10 5.4 6.0
2015-Mar-28 12:20 260 8 5.4 5.0
2015-Mar-28 11:50 270 6 5.4 5.0
2015-Mar-28 11:20 270 7 5.4 5.0
2015-Mar-28 10:50 260 8 5.4 4.0
2015-Mar-28 10:20 260 8 5.4 4.0
2015-Mar-28 09:50 230 6 5.4 4.0
2015-Mar-28 09:20 240 7 5.4 4.0
2015-Mar-28 08:50 240 6 5.4 3.0
2015-Mar-28 08:20 230 6 5.4 3.0
2015-Mar-28 07:50 240 4 5.4 3.0
2015-Mar-28 07:20 230 4 5.4 2.0
2015-Mar-28 06:50 260 6 5.4 2.0
2015-Mar-28 06:20 260 7 5.4 2.0
2015-Mar-28 05:50 240 6 5.4 2.0
2015-Mar-28 05:20 230 5 5.4 2.0
2015-Mar-28 04:50 250 4 5.4 2.0
2015-Mar-28 04:20 230 5 5.4 2.0
2015-Mar-28 03:50 240 7 5.4 2.0
2015-Mar-28 03:20 240 8 5.4 2.0
2015-Mar-28 02:50 240 7 5.4 2.0
2015-Mar-28 02:20 240 8 5.4 3.0
2015-Mar-28 01:50 250 5 5.4 3.0
2015-Mar-28 01:20 230 4 5.4 3.0
2015-Mar-28 00:50 230 5 5.4 3.0
2015-Mar-28 00:20 240 4 5.4 3.0
2015-Mar-27 23:50 240 5 5.4 3.0
2015-Mar-27 23:20 230 5 5.4 3.0
2015-Mar-27 22:50 5.4 3.0
2015-Mar-27 22:20 260 4 5.4 4.0 Light drizzle.
2015-Mar-27 21:50 260 5 5.4 4.0 Light drizzle.
2015-Mar-27 21:20 260 6 5.4 4.0 Drizzle.
2015-Mar-27 20:50 260 7 5.4 4.0 Light drizzle.
2015-Mar-27 20:20 250 6 5.4 5.0 Light rain.
2015-Mar-27 19:50 240 5 5.4 5.0 Light rain.
2015-Mar-27 19:20 250 5 5.4 5.0 Light rain.
2015-Mar-27 18:50 250 5 5.4 5.0 Light rain.
2015-Mar-27 18:20 230 3 5.4 5.0 Light rain.
2015-Mar-27 17:50 5.4 5.0 Light rain.
2015-Mar-27 17:20 250 5 5.4 6.0
2015-Mar-27 16:50 250 6 5.4 6.0
2015-Mar-27 16:20 260 7 5.4 6.0
2015-Mar-27 15:50 250 4 3.8 6.0
2015-Mar-27 15:20 250 5 2.7 6.0 Mist.
2015-Mar-27 14:50 250 5 2.7 6.0 Mist.
2015-Mar-27 14:20 250 5 2.4 6.0 Mist.
2015-Mar-27 13:50 260 6 2.7 6.0 Mist.
2015-Mar-27 13:20 260 4 2.7 7.0 Mist.
2015-Mar-27 12:50 230 5 3.2 7.0 Mist.
2015-Mar-27 12:20 180 4 2.7 6.0 Mist.
2015-Mar-27 11:50 200 4 2.6 6.0 Mist.
2015-Mar-27 11:20 190 3 1.7 6.0 Mist.
2015-Mar-27 10:50 170 4 1.5 5.0 Mist.
2015-Mar-27 10:20 110 4 1.1 5.0 Mist.
2015-Mar-27 09:50 130 7 1.3 5.0 Mist.
2015-Mar-27 09:20 120 8 3.2 5.0 Mist.